owner,sensor,date,latitude,longitude,air_pressure(mBar),qcFlag 
TABS,ioos:station:wmo:42045:1,2011-06-01T00:00:00Z,26.2168,-96.4998,1018.62,11111222 
TABS,ioos:station:wmo:42045:1,2011-06-01T00:30:00Z,26.2168,-96.4998,1018.79,11111222 
TABS,ioos:station:wmo:42045:1,2011-06-01T01:00:00Z,26.2168,-96.4998,1019.04,11111222 
TABS,ioos:station:wmo:42045:1,2011-06-01T01:30:00Z,26.2168,-96.4998,1019.02,11111222 
TABS,ioos:station:wmo:42045:1,2011-06-01T02:00:00Z,26.2168,-96.4998,1019.35,11111222 
TABS,ioos:station:wmo:42045:1,2011-06-01T02:30:00Z,26.2168,-96.4998,1019.67,11111222 
TABS,ioos:station:wmo:42045:1,2011-06-01T03:00:00Z,26.2168,-96.4998,1019.65,11111222 
TABS,ioos:station:wmo:42045:1,2011-06-01T03:30:00Z,26.2168,-96.4998,1019.83,11111222 
TABS,ioos:station:wmo:42045:1,2011-06-01T04:00:00Z,26.2168,-96.4998,1020.01,11111222 
TABS,ioos:station:wmo:42045:1,2011-06-01T04:30:00Z,26.2168,-96.4998,1020.03,11111222 
TABS,ioos:station:wmo:42045:1,2011-06-01T05:00:00Z,26.2168,-96.4998,1019.71,11111222 
TABS,ioos:station:wmo:42045:1,2011-06-01T05:30:00Z,26.2168,-96.4998,1019.81,11111222 
TABS,ioos:station:wmo:42045:1,2011-06-01T06:00:00Z,26.2168,-96.4998,1019.79,11111222 
TABS,ioos:station:wmo:42045:1,2011-06-01T06:30:00Z,26.2168,-96.4998,1019.72,11111222 
TABS,ioos:station:wmo:42045:1,2011-06-01T07:00:00Z,26.2168,-96.4998,1019.81,11111222 
TABS,ioos:station:wmo:42045:1,2011-06-01T07:30:00Z,26.2168,-96.4998,1019.83,11111222 
TABS,ioos:station:wmo:42045:1,2011-06-01T08:00:00Z,26.2168,-96.4998,1019.88,11111222 
TABS,ioos:station:wmo:42045:1,2011-06-01T08:30:00Z,26.2168,-96.4998,1019.59,11111222 
TABS,ioos:station:wmo:42045:1,2011-06-01T09:00:00Z,26.2168,-96.4998,1019.65,11111222 
TABS,ioos:station:wmo:42045:1,2011-06-01T09:30:00Z,26.2168,-96.4998,1019.7,11111222 
TABS,ioos:station:wmo:42045:1,2011-06-01T10:00:00Z,26.2168,-96.4998,1019.71,11111222 
TABS,ioos:station:wmo:42045:1,2011-06-01T10:30:00Z,26.2168,-96.4998,1019.84,11111222 
TABS,ioos:station:wmo:42045:1,2011-06-01T11:00:00Z,26.2168,-96.4998,1019.83,11111222 
TABS,ioos:station:wmo:42045:1,2011-06-01T11:30:00Z,26.2168,-96.4998,1019.96,11111222 
TABS,ioos:station:wmo:42045:1,2011-06-01T12:00:00Z,26.2168,-96.4998,1020.27,11111222 
TABS,ioos:station:wmo:42045:1,2011-06-01T12:30:00Z,26.2168,-96.4998,1020.54,11111222 
TABS,ioos:station:wmo:42045:1,2011-06-01T13:00:00Z,26.2168,-96.4998,1020.86,11111222 
TABS,ioos:station:wmo:42045:1,2011-06-01T13:30:00Z,26.2168,-96.4998,1021.24,11111222 
TABS,ioos:station:wmo:42045:1,2011-06-01T14:00:00Z,26.2168,-96.4998,1021.73,11111222 
TABS,ioos:station:wmo:42045:1,2011-06-01T14:30:00Z,26.2168,-96.4998,1021.62,11111222 
TABS,ioos:station:wmo:42045:1,2011-06-01T15:00:00Z,26.2168,-96.4998,1021.56,11111222 
TABS,ioos:station:wmo:42045:1,2011-06-01T15:30:00Z,26.2168,-96.4998,1021.68,11111222 
TABS,ioos:station:wmo:42045:1,2011-06-01T16:00:00Z,26.2168,-96.4998,1021.65,11111222 
TABS,ioos:station:wmo:42045:1,2011-06-01T16:30:00Z,26.2168,-96.4998,1021.67,11111222 
TABS,ioos:station:wmo:42045:1,2011-06-01T17:00:00Z,26.2168,-96.4998,1021.6,11111222 
TABS,ioos:station:wmo:42045:1,2011-06-01T17:30:00Z,26.2168,-96.4998,1021.51,11111222 
TABS,ioos:station:wmo:42045:1,2011-06-01T18:00:00Z,26.2168,-96.4998,1021.16,11111222 
TABS,ioos:station:wmo:42045:1,2011-06-01T18:30:00Z,26.2168,-96.4998,1020.87,11111222 
TABS,ioos:station:wmo:42045:1,2011-06-01T19:00:00Z,26.2168,-96.4998,1020.53,11111222 
TABS,ioos:station:wmo:42045:1,2011-06-01T19:30:00Z,26.2168,-96.4998,1020.38,11111222 
TABS,ioos:station:wmo:42045:1,2011-06-01T20:00:00Z,26.2168,-96.4998,1020.07,11111222 
TABS,ioos:station:wmo:42045:1,2011-06-01T20:30:00Z,26.2168,-96.4998,1019.91,11111222 
TABS,ioos:station:wmo:42045:1,2011-06-01T21:00:00Z,26.2168,-96.4998,1019.53,11111222 
TABS,ioos:station:wmo:42045:1,2011-06-01T21:30:00Z,26.2168,-96.4998,1019.22,11111222 
TABS,ioos:station:wmo:42045:1,2011-06-01T22:00:00Z,26.2168,-96.4998,1019.04,11111222 
TABS,ioos:station:wmo:42045:1,2011-06-01T22:30:00Z,26.2168,-96.4998,1018.79,11111222 
TABS,ioos:station:wmo:42045:1,2011-06-01T23:00:00Z,26.2168,-96.4998,1018.61,11111222 
TABS,ioos:station:wmo:42045:1,2011-06-01T23:30:00Z,26.2168,-96.4998,1018.41,11111222 
TABS,ioos:station:wmo:42045:1,2011-06-02T00:00:00Z,26.2168,-96.4998,1018.2,11111222 
TABS,ioos:station:wmo:42045:1,2011-06-02T00:30:00Z,26.2168,-96.4998,1018.25,11111222 
TABS,ioos:station:wmo:42045:1,2011-06-02T01:00:00Z,26.2168,-96.4998,1018.09,11111222 
TABS,ioos:station:wmo:42045:1,2011-06-02T01:30:00Z,26.2168,-96.4998,1018.23,11111222 
TABS,ioos:station:wmo:42045:1,2011-06-02T02:00:00Z,26.2168,-96.4998,1018.26,11111222 
TABS,ioos:station:wmo:42045:1,2011-06-02T02:30:00Z,26.2168,-96.4998,1018.31,11111222 
TABS,ioos:station:wmo:42045:1,2011-06-02T03:00:00Z,26.2168,-96.4998,1018.49,11111222 
TABS,ioos:station:wmo:42045:1,2011-06-02T03:30:00Z,26.2168,-96.4998,1018.7,11111222 
TABS,ioos:station:wmo:42045:1,2011-06-02T04:00:00Z,26.2168,-96.4998,1018.72,11111222 
TABS,ioos:station:wmo:42045:1,2011-06-02T04:30:00Z,26.2168,-96.4998,1018.51,11111222 
TABS,ioos:station:wmo:42045:1,2011-06-02T05:00:00Z,26.2168,-96.4998,1018.25,11111222 
TABS,ioos:station:wmo:42045:1,2011-06-02T05:30:00Z,26.2168,-96.4998,1017.93,11111222 
TABS,ioos:station:wmo:42045:1,2011-06-02T06:00:00Z,26.2168,-96.4998,1017.57,11111222 
TABS,ioos:station:wmo:42045:1,2011-06-02T06:30:00Z,26.2168,-96.4998,1017.42,11111222 
TABS,ioos:station:wmo:42045:1,2011-06-02T07:00:00Z,26.2168,-96.4998,1017.37,11111222 
TABS,ioos:station:wmo:42045:1,2011-06-02T07:30:00Z,26.2168,-96.4998,1017.27,11111222 
TABS,ioos:station:wmo:42045:1,2011-06-02T08:00:00Z,26.2168,-96.4998,1017.4,11111222 
TABS,ioos:station:wmo:42045:1,2011-06-02T08:30:00Z,26.2168,-96.4998,1017.25,11111222 
TABS,ioos:station:wmo:42045:1,2011-06-02T09:00:00Z,26.2168,-96.4998,1017.24,11111222 
TABS,ioos:station:wmo:42045:1,2011-06-02T09:30:00Z,26.2168,-96.4998,1017.23,11111222 
TABS,ioos:station:wmo:42045:1,2011-06-02T10:00:00Z,26.2168,-96.4998,1017.06,11111222 
TABS,ioos:station:wmo:42045:1,2011-06-02T10:30:00Z,26.2168,-96.4998,1017.03,11111222 
TABS,ioos:station:wmo:42045:1,2011-06-02T11:00:00Z,26.2168,-96.4998,1016.94,11111222 
TABS,ioos:station:wmo:42045:1,2011-06-02T11:30:00Z,26.2168,-96.4998,1017.03,11111222 
TABS,ioos:station:wmo:42045:1,2011-06-02T12:00:00Z,26.2168,-96.4998,1016.91,11111222 
TABS,ioos:station:wmo:42045:1,2011-06-02T12:30:00Z,26.2168,-96.4998,1017.4,11111222 
TABS,ioos:station:wmo:42045:1,2011-06-02T13:00:00Z,26.2168,-96.4998,1017.45,11111222 
TABS,ioos:station:wmo:42045:1,2011-06-02T13:30:00Z,26.2168,-96.4998,1017.47,11111222 
TABS,ioos:station:wmo:42045:1,2011-06-02T14:00:00Z,26.2168,-96.4998,1017.78,11111222 
TABS,ioos:station:wmo:42045:1,2011-06-02T14:30:00Z,26.2168,-96.4998,1017.86,11111222 
TABS,ioos:station:wmo:42045:1,2011-06-02T15:00:00Z,26.2168,-96.4998,1018.06,11111222 
TABS,ioos:station:wmo:42045:1,2011-06-02T15:30:00Z,26.2168,-96.4998,1017.99,11111222 
TABS,ioos:station:wmo:42045:1,2011-06-02T16:00:00Z,26.2168,-96.4998,1017.93,11111222 
TABS,ioos:station:wmo:42045:1,2011-06-02T16:30:00Z,26.2168,-96.4998,1017.67,11111222 
TABS,ioos:station:wmo:42045:1,2011-06-02T17:00:00Z,26.2168,-96.4998,1017.32,11111222 
TABS,ioos:station:wmo:42045:1,2011-06-02T17:30:00Z,26.2168,-96.4998,1017.45,11111222 
TABS,ioos:station:wmo:42045:1,2011-06-02T18:00:00Z,26.2168,-96.4998,1016.92,11111222 
TABS,ioos:station:wmo:42045:1,2011-06-02T18:30:00Z,26.2168,-96.4998,1016.4,11111222 
TABS,ioos:station:wmo:42045:1,2011-06-02T19:00:00Z,26.2168,-96.4998,1015.88,11111222 
TABS,ioos:station:wmo:42045:1,2011-06-02T19:30:00Z,26.2168,-96.4998,1016.03,11111222 
TABS,ioos:station:wmo:42045:1,2011-06-02T20:00:00Z,26.2168,-96.4998,1016.17,11111222 
TABS,ioos:station:wmo:42045:1,2011-06-02T20:30:00Z,26.2168,-96.4998,1015.87,11111222 
TABS,ioos:station:wmo:42045:1,2011-06-02T21:00:00Z,26.2168,-96.4998,1015.69,11111222 
TABS,ioos:station:wmo:42045:1,2011-06-02T21:30:00Z,26.2168,-96.4998,1015.3,11111222 
TABS,ioos:station:wmo:42045:1,2011-06-02T22:00:00Z,26.2168,-96.4998,1014.94,11111222 
TABS,ioos:station:wmo:42045:1,2011-06-02T22:30:00Z,26.2168,-96.4998,1014.93,11111222 
TABS,ioos:station:wmo:42045:1,2011-06-02T23:00:00Z,26.2168,-96.4998,1014.62,11111222 
TABS,ioos:station:wmo:42045:1,2011-06-02T23:30:00Z,26.2168,-96.4998,1014.53,11111222 
TABS,ioos:station:wmo:42045:1,2011-06-03T00:00:00Z,26.2168,-96.4998,1014.25,11111222 
TABS,ioos:station:wmo:42045:1,2011-06-03T00:30:00Z,26.2168,-96.4998,1014.22,11111222 
TABS,ioos:station:wmo:42045:1,2011-06-03T01:00:00Z,26.2168,-96.4998,1014.23,11111222 
TABS,ioos:station:wmo:42045:1,2011-06-03T01:30:00Z,26.2168,-96.4998,1014.08,11111222 
TABS,ioos:station:wmo:42045:1,2011-06-03T02:00:00Z,26.2168,-96.4998,1014.23,11111222 
TABS,ioos:station:wmo:42045:1,2011-06-03T02:30:00Z,26.2168,-96.4998,1014.24,11111222 
TABS,ioos:station:wmo:42045:1,2011-06-03T03:00:00Z,26.2168,-96.4998,1014.36,11111222 
TABS,ioos:station:wmo:42045:1,2011-06-03T03:30:00Z,26.2168,-96.4998,1014.37,11111222 
TABS,ioos:station:wmo:42045:1,2011-06-03T04:00:00Z,26.2168,-96.4998,1014.48,11111222 
TABS,ioos:station:wmo:42045:1,2011-06-03T04:30:00Z,26.2168,-96.4998,1014.73,11111222 
TABS,ioos:station:wmo:42045:1,2011-06-03T05:00:00Z,26.2168,-96.4998,1014.73,11111222 
TABS,ioos:station:wmo:42045:1,2011-06-03T05:30:00Z,26.2168,-96.4998,1014.6,11111222 
TABS,ioos:station:wmo:42045:1,2011-06-03T06:00:00Z,26.2168,-96.4998,1014.58,11111222 
TABS,ioos:station:wmo:42045:1,2011-06-03T06:30:00Z,26.2168,-96.4998,1014.32,11111222 
TABS,ioos:station:wmo:42045:1,2011-06-03T07:00:00Z,26.2168,-96.4998,1014.17,11111222 
TABS,ioos:station:wmo:42045:1,2011-06-03T07:30:00Z,26.2168,-96.4998,1013.85,11111222 
TABS,ioos:station:wmo:42045:1,2011-06-03T08:00:00Z,26.2168,-96.4998,1013.56,11111222 
TABS,ioos:station:wmo:42045:1,2011-06-03T08:30:00Z,26.2168,-96.4998,1013.29,11111222 
TABS,ioos:station:wmo:42045:1,2011-06-03T09:00:00Z,26.2168,-96.4998,1013.16,11111222 
TABS,ioos:station:wmo:42045:1,2011-06-03T09:30:00Z,26.2168,-96.4998,1013.15,11111222 
TABS,ioos:station:wmo:42045:1,2011-06-03T10:00:00Z,26.2168,-96.4998,1013.17,11111222 
TABS,ioos:station:wmo:42045:1,2011-06-03T10:30:00Z,26.2168,-96.4998,1013.33,11111222 
TABS,ioos:station:wmo:42045:1,2011-06-03T11:00:00Z,26.2168,-96.4998,1013.47,11111222 
TABS,ioos:station:wmo:42045:1,2011-06-03T11:30:00Z,26.2168,-96.4998,1013.69,11111222 
TABS,ioos:station:wmo:42045:1,2011-06-03T12:00:00Z,26.2168,-96.4998,1013.92,11111222 
TABS,ioos:station:wmo:42045:1,2011-06-03T12:30:00Z,26.2168,-96.4998,1014.11,11111222 
TABS,ioos:station:wmo:42045:1,2011-06-03T13:00:00Z,26.2168,-96.4998,1014.47,11111222 
TABS,ioos:station:wmo:42045:1,2011-06-03T13:30:00Z,26.2168,-96.4998,1014.86,11111222 
TABS,ioos:station:wmo:42045:1,2011-06-03T14:00:00Z,26.2168,-96.4998,1015.38,11111222 
TABS,ioos:station:wmo:42045:1,2011-06-03T14:30:00Z,26.2168,-96.4998,1015.63,11111222 
TABS,ioos:station:wmo:42045:1,2011-06-03T15:00:00Z,26.2168,-96.4998,1015.83,11111222 
TABS,ioos:station:wmo:42045:1,2011-06-03T15:30:00Z,26.2168,-96.4998,1015.81,11111222 
TABS,ioos:station:wmo:42045:1,2011-06-03T16:00:00Z,26.2168,-96.4998,1015.96,11111222 
TABS,ioos:station:wmo:42045:1,2011-06-03T16:30:00Z,26.2168,-96.4998,1015.96,11111222 
TABS,ioos:station:wmo:42045:1,2011-06-03T17:00:00Z,26.2168,-96.4998,1016.13,11111222 
TABS,ioos:station:wmo:42045:1,2011-06-03T17:30:00Z,26.2168,-96.4998,1016.05,11111222 
TABS,ioos:station:wmo:42045:1,2011-06-03T18:00:00Z,26.2168,-96.4998,1015.81,11111222 
TABS,ioos:station:wmo:42045:1,2011-06-03T18:30:00Z,26.2168,-96.4998,1015.34,11111222 
TABS,ioos:station:wmo:42045:1,2011-06-03T19:00:00Z,26.2168,-96.4998,1015.03,11111222 
TABS,ioos:station:wmo:42045:1,2011-06-03T19:30:00Z,26.2168,-96.4998,1014.8,11111222 
TABS,ioos:station:wmo:42045:1,2011-06-03T20:00:00Z,26.2168,-96.4998,1014.84,11111222 
TABS,ioos:station:wmo:42045:1,2011-06-03T20:30:00Z,26.2168,-96.4998,1014.77,11111222 
TABS,ioos:station:wmo:42045:1,2011-06-03T21:00:00Z,26.2168,-96.4998,1014.44,11111222 
TABS,ioos:station:wmo:42045:1,2011-06-03T21:30:00Z,26.2168,-96.4998,1014.35,11111222 
TABS,ioos:station:wmo:42045:1,2011-06-03T22:00:00Z,26.2168,-96.4998,1014.13,11111222 
TABS,ioos:station:wmo:42045:1,2011-06-03T22:30:00Z,26.2168,-96.4998,1013.91,11111222 
TABS,ioos:station:wmo:42045:1,2011-06-03T23:00:00Z,26.2168,-96.4998,1013.85,11111222 
TABS,ioos:station:wmo:42045:1,2011-06-03T23:30:00Z,26.2168,-96.4998,1013.78,11111222 
TABS,ioos:station:wmo:42045:1,2011-06-04T00:00:00Z,26.2168,-96.4998,1013.75,11111222 
TABS,ioos:station:wmo:42045:1,2011-06-04T00:30:00Z,26.2168,-96.4998,1014.02,11111222 
TABS,ioos:station:wmo:42045:1,2011-06-04T01:00:00Z,26.2168,-96.4998,1014.19,11111222 
TABS,ioos:station:wmo:42045:1,2011-06-04T01:30:00Z,26.2168,-96.4998,1014.31,11111222 
TABS,ioos:station:wmo:42045:1,2011-06-04T02:00:00Z,26.2168,-96.4998,1014.58,11111222 
TABS,ioos:station:wmo:42045:1,2011-06-04T02:30:00Z,26.2168,-96.4998,1014.56,11111222 
TABS,ioos:station:wmo:42045:1,2011-06-04T03:00:00Z,26.2168,-96.4998,1014.83,11111222 
TABS,ioos:station:wmo:42045:1,2011-06-04T03:30:00Z,26.2168,-96.4998,1015.28,11111222 
TABS,ioos:station:wmo:42045:1,2011-06-04T04:00:00Z,26.2168,-96.4998,1015.62,11111222 
TABS,ioos:station:wmo:42045:1,2011-06-04T04:30:00Z,26.2168,-96.4998,1015.79,11111222 
TABS,ioos:station:wmo:42045:1,2011-06-04T05:00:00Z,26.2168,-96.4998,1015.73,11111222 
TABS,ioos:station:wmo:42045:1,2011-06-04T05:30:00Z,26.2168,-96.4998,1015.59,11111222 
TABS,ioos:station:wmo:42045:1,2011-06-04T06:00:00Z,26.2168,-96.4998,1015.75,11111222 
TABS,ioos:station:wmo:42045:1,2011-06-04T06:30:00Z,26.2168,-96.4998,1015.46,11111222 
TABS,ioos:station:wmo:42045:1,2011-06-04T07:00:00Z,26.2168,-96.4998,1015.48,11111222 
TABS,ioos:station:wmo:42045:1,2011-06-04T07:30:00Z,26.2168,-96.4998,1015.14,11111222 
TABS,ioos:station:wmo:42045:1,2011-06-04T08:00:00Z,26.2168,-96.4998,1015.17,11111222 
TABS,ioos:station:wmo:42045:1,2011-06-04T08:30:00Z,26.2168,-96.4998,1015.05,11111222 
TABS,ioos:station:wmo:42045:1,2011-06-04T09:00:00Z,26.2168,-96.4998,1015.25,11111222 
TABS,ioos:station:wmo:42045:1,2011-06-04T09:30:00Z,26.2168,-96.4998,1015.28,11111222 
TABS,ioos:station:wmo:42045:1,2011-06-04T10:00:00Z,26.2168,-96.4998,1015.32,11111222 
TABS,ioos:station:wmo:42045:1,2011-06-04T10:30:00Z,26.2168,-96.4998,1015.35,11111222 
TABS,ioos:station:wmo:42045:1,2011-06-04T11:00:00Z,26.2168,-96.4998,1015.62,11111222 
TABS,ioos:station:wmo:42045:1,2011-06-04T11:30:00Z,26.2168,-96.4998,1016.03,11111222 
TABS,ioos:station:wmo:42045:1,2011-06-04T12:00:00Z,26.2168,-96.4998,1016.24,11111222 
TABS,ioos:station:wmo:42045:1,2011-06-04T12:30:00Z,26.2168,-96.4998,1016.42,11111222 
TABS,ioos:station:wmo:42045:1,2011-06-04T13:00:00Z,26.2168,-96.4998,1016.61,11111222 
TABS,ioos:station:wmo:42045:1,2011-06-04T13:30:00Z,26.2168,-96.4998,1016.83,11111222 
TABS,ioos:station:wmo:42045:1,2011-06-04T14:00:00Z,26.2168,-96.4998,1016.93,11111222 
TABS,ioos:station:wmo:42045:1,2011-06-04T14:30:00Z,26.2168,-96.4998,1017.35,11111222 
TABS,ioos:station:wmo:42045:1,2011-06-04T15:00:00Z,26.2168,-96.4998,1017.63,11111222 
TABS,ioos:station:wmo:42045:1,2011-06-04T15:30:00Z,26.2168,-96.4998,1017.92,11111222 
TABS,ioos:station:wmo:42045:1,2011-06-04T16:00:00Z,26.2168,-96.4998,1018.18,11111222 
TABS,ioos:station:wmo:42045:1,2011-06-04T16:30:00Z,26.2168,-96.4998,1018.53,11111222 
TABS,ioos:station:wmo:42045:1,2011-06-04T17:00:00Z,26.2168,-96.4998,1018.54,11111222 
TABS,ioos:station:wmo:42045:1,2011-06-04T17:30:00Z,26.2168,-96.4998,1018.34,11111222 
TABS,ioos:station:wmo:42045:1,2011-06-04T18:00:00Z,26.2168,-96.4998,1018.37,11111222 
TABS,ioos:station:wmo:42045:1,2011-06-04T18:30:00Z,26.2168,-96.4998,1018.31,11111222 
TABS,ioos:station:wmo:42045:1,2011-06-04T19:00:00Z,26.2168,-96.4998,1018.26,11111222 
TABS,ioos:station:wmo:42045:1,2011-06-04T19:30:00Z,26.2168,-96.4998,1018.11,11111222 
TABS,ioos:station:wmo:42045:1,2011-06-04T20:00:00Z,26.2168,-96.4998,1017.93,11111222 
TABS,ioos:station:wmo:42045:1,2011-06-04T20:30:00Z,26.2168,-96.4998,1017.85,11111222 
TABS,ioos:station:wmo:42045:1,2011-06-04T21:00:00Z,26.2168,-96.4998,1017.65,11111222 
TABS,ioos:station:wmo:42045:1,2011-06-04T21:30:00Z,26.2168,-96.4998,1017.59,11111222 
TABS,ioos:station:wmo:42045:1,2011-06-04T22:00:00Z,26.2168,-96.4998,1017.43,11111222 
TABS,ioos:station:wmo:42045:1,2011-06-04T22:30:00Z,26.2168,-96.4998,1017.33,11111222 
TABS,ioos:station:wmo:42045:1,2011-06-04T23:00:00Z,26.2168,-96.4998,1017.3,11111222 
TABS,ioos:station:wmo:42045:1,2011-06-04T23:30:00Z,26.2168,-96.4998,1017.28,11111222 
TABS,ioos:station:wmo:42045:1,2011-06-05T00:00:00Z,26.2168,-96.4998,1017.36,11111222 
TABS,ioos:station:wmo:42045:1,2011-06-05T00:30:00Z,26.2168,-96.4998,1017.55,11111222 
TABS,ioos:station:wmo:42045:1,2011-06-05T01:00:00Z,26.2168,-96.4998,1017.42,11111222 
TABS,ioos:station:wmo:42045:1,2011-06-05T01:30:00Z,26.2168,-96.4998,1017.66,11111222 
TABS,ioos:station:wmo:42045:1,2011-06-05T02:00:00Z,26.2168,-96.4998,1017.75,11111222 
TABS,ioos:station:wmo:42045:1,2011-06-05T02:30:00Z,26.2168,-96.4998,1017.97,11111222 
TABS,ioos:station:wmo:42045:1,2011-06-05T03:00:00Z,26.2168,-96.4998,1018.18,11111222 
TABS,ioos:station:wmo:42045:1,2011-06-05T03:30:00Z,26.2168,-96.4998,1018.49,11111222 
TABS,ioos:station:wmo:42045:1,2011-06-05T04:00:00Z,26.2168,-96.4998,1018.78,11111222 
TABS,ioos:station:wmo:42045:1,2011-06-05T04:30:00Z,26.2168,-96.4998,1018.9,11111222 
TABS,ioos:station:wmo:42045:1,2011-06-05T05:00:00Z,26.2168,-96.4998,1018.62,11111222 
TABS,ioos:station:wmo:42045:1,2011-06-05T05:30:00Z,26.2168,-96.4998,1018.56,11111222 
TABS,ioos:station:wmo:42045:1,2011-06-05T06:00:00Z,26.2168,-96.4998,1018.23,11111222 
TABS,ioos:station:wmo:42045:1,2011-06-05T06:30:00Z,26.2168,-96.4998,1018.13,11111222 
TABS,ioos:station:wmo:42045:1,2011-06-05T07:00:00Z,26.2168,-96.4998,1017.96,11111222 
TABS,ioos:station:wmo:42045:1,2011-06-05T07:30:00Z,26.2168,-96.4998,1017.51,11111222 
TABS,ioos:station:wmo:42045:1,2011-06-05T08:00:00Z,26.2168,-96.4998,1017.32,11111222 
TABS,ioos:station:wmo:42045:1,2011-06-05T08:30:00Z,26.2168,-96.4998,1017.17,11111222 
TABS,ioos:station:wmo:42045:1,2011-06-05T09:00:00Z,26.2168,-96.4998,1017.21,11111222 
TABS,ioos:station:wmo:42045:1,2011-06-05T09:30:00Z,26.2168,-96.4998,1017.05,11111222 
TABS,ioos:station:wmo:42045:1,2011-06-05T10:00:00Z,26.2168,-96.4998,1017.06,11111222 
TABS,ioos:station:wmo:42045:1,2011-06-05T10:30:00Z,26.2168,-96.4998,1016.95,11111222 
TABS,ioos:station:wmo:42045:1,2011-06-05T11:00:00Z,26.2168,-96.4998,1017.35,11111222 
TABS,ioos:station:wmo:42045:1,2011-06-05T11:30:00Z,26.2168,-96.4998,1017.86,11111222 
TABS,ioos:station:wmo:42045:1,2011-06-05T12:00:00Z,26.2168,-96.4998,1018.06,11111222 
TABS,ioos:station:wmo:42045:1,2011-06-05T12:30:00Z,26.2168,-96.4998,1018.23,11111222 
TABS,ioos:station:wmo:42045:1,2011-06-05T13:00:00Z,26.2168,-96.4998,1018.46,11111222 
TABS,ioos:station:wmo:42045:1,2011-06-05T13:30:00Z,26.2168,-96.4998,1018.55,11111222 
TABS,ioos:station:wmo:42045:1,2011-06-05T14:00:00Z,26.2168,-96.4998,1018.88,11111222 
TABS,ioos:station:wmo:42045:1,2011-06-05T14:30:00Z,26.2168,-96.4998,1018.88,11111222 
TABS,ioos:station:wmo:42045:1,2011-06-05T15:00:00Z,26.2168,-96.4998,1019.01,11111222 
TABS,ioos:station:wmo:42045:1,2011-06-05T15:30:00Z,26.2168,-96.4998,1018.94,11111222 
TABS,ioos:station:wmo:42045:1,2011-06-05T16:00:00Z,26.2168,-96.4998,1019.18,11111222 
TABS,ioos:station:wmo:42045:1,2011-06-05T16:30:00Z,26.2168,-96.4998,1019.37,11111222 
TABS,ioos:station:wmo:42045:1,2011-06-05T17:00:00Z,26.2168,-96.4998,1019.27,11111222 
TABS,ioos:station:wmo:42045:1,2011-06-05T17:30:00Z,26.2168,-96.4998,1019.02,11111222 
TABS,ioos:station:wmo:42045:1,2011-06-05T18:00:00Z,26.2168,-96.4998,1018.77,11111222 
TABS,ioos:station:wmo:42045:1,2011-06-05T18:30:00Z,26.2168,-96.4998,1018.57,11111222 
TABS,ioos:station:wmo:42045:1,2011-06-05T19:00:00Z,26.2168,-96.4998,1018.23,11111222 
TABS,ioos:station:wmo:42045:1,2011-06-05T19:30:00Z,26.2168,-96.4998,1017.94,11111222 
TABS,ioos:station:wmo:42045:1,2011-06-05T20:00:00Z,26.2168,-96.4998,1017.77,11111222 
TABS,ioos:station:wmo:42045:1,2011-06-05T20:30:00Z,26.2168,-96.4998,1017.45,11111222 
TABS,ioos:station:wmo:42045:1,2011-06-05T21:00:00Z,26.2168,-96.4998,1017.26,11111222 
TABS,ioos:station:wmo:42045:1,2011-06-05T21:30:00Z,26.2168,-96.4998,1016.99,11111222 
TABS,ioos:station:wmo:42045:1,2011-06-05T22:00:00Z,26.2168,-96.4998,1016.63,11111222 
TABS,ioos:station:wmo:42045:1,2011-06-05T22:30:00Z,26.2168,-96.4998,1016.4,11111222 
TABS,ioos:station:wmo:42045:1,2011-06-05T23:00:00Z,26.2168,-96.4998,1016.11,11111222 
TABS,ioos:station:wmo:42045:1,2011-06-05T23:30:00Z,26.2168,-96.4998,1015.99,11111222 
TABS,ioos:station:wmo:42045:1,2011-06-06T00:00:00Z,26.2168,-96.4998,1015.86,11111222 
TABS,ioos:station:wmo:42045:1,2011-06-06T00:30:00Z,26.2168,-96.4998,1016.09,11111222 
TABS,ioos:station:wmo:42045:1,2011-06-06T01:00:00Z,26.2168,-96.4998,1016.14,11111222 
TABS,ioos:station:wmo:42045:1,2011-06-06T01:30:00Z,26.2168,-96.4998,1016.17,11111222 
TABS,ioos:station:wmo:42045:1,2011-06-06T02:00:00Z,26.2168,-96.4998,1015.8,11111222 
TABS,ioos:station:wmo:42045:1,2011-06-06T02:30:00Z,26.2168,-96.4998,1015.95,11111222 
TABS,ioos:station:wmo:42045:1,2011-06-06T03:00:00Z,26.2168,-96.4998,1016.03,11111222 
TABS,ioos:station:wmo:42045:1,2011-06-06T03:30:00Z,26.2168,-96.4998,1016.26,11111222 
TABS,ioos:station:wmo:42045:1,2011-06-06T04:00:00Z,26.2168,-96.4998,1016.26,11111222 
TABS,ioos:station:wmo:42045:1,2011-06-06T04:30:00Z,26.2168,-96.4998,1016.12,11111222 
TABS,ioos:station:wmo:42045:1,2011-06-06T05:00:00Z,26.2168,-96.4998,1016.01,11111222 
TABS,ioos:station:wmo:42045:1,2011-06-06T05:30:00Z,26.2168,-96.4998,1016.01,11111222 
TABS,ioos:station:wmo:42045:1,2011-06-06T06:00:00Z,26.2168,-96.4998,1015.69,11111222 
TABS,ioos:station:wmo:42045:1,2011-06-06T06:30:00Z,26.2168,-96.4998,1015.52,11111222 
TABS,ioos:station:wmo:42045:1,2011-06-06T07:00:00Z,26.2168,-96.4998,1015.44,11111222 
TABS,ioos:station:wmo:42045:1,2011-06-06T07:30:00Z,26.2168,-96.4998,1015.03,11111222 
TABS,ioos:station:wmo:42045:1,2011-06-06T08:00:00Z,26.2168,-96.4998,1014.9,11111222 
TABS,ioos:station:wmo:42045:1,2011-06-06T08:30:00Z,26.2168,-96.4998,1014.76,11111222 
TABS,ioos:station:wmo:42045:1,2011-06-06T09:00:00Z,26.2168,-96.4998,1014.57,11111222 
TABS,ioos:station:wmo:42045:1,2011-06-06T09:30:00Z,26.2168,-96.4998,1014.38,11111222 
TABS,ioos:station:wmo:42045:1,2011-06-06T10:00:00Z,26.2168,-96.4998,1014.26,11111222 
TABS,ioos:station:wmo:42045:1,2011-06-06T10:30:00Z,26.2168,-96.4998,1014.28,11111222 
TABS,ioos:station:wmo:42045:1,2011-06-06T11:00:00Z,26.2168,-96.4998,1014.44,11111222 
TABS,ioos:station:wmo:42045:1,2011-06-06T11:30:00Z,26.2168,-96.4998,1014.52,11111222 
TABS,ioos:station:wmo:42045:1,2011-06-06T12:00:00Z,26.2168,-96.4998,1014.92,11111222 
TABS,ioos:station:wmo:42045:1,2011-06-06T12:30:00Z,26.2168,-96.4998,1015.03,11111222 
TABS,ioos:station:wmo:42045:1,2011-06-06T13:00:00Z,26.2168,-96.4998,1015.36,11111222 
TABS,ioos:station:wmo:42045:1,2011-06-06T13:30:00Z,26.2168,-96.4998,1015.57,11111222 
TABS,ioos:station:wmo:42045:1,2011-06-06T14:00:00Z,26.2168,-96.4998,1015.5,11111222 
TABS,ioos:station:wmo:42045:1,2011-06-06T14:30:00Z,26.2168,-96.4998,1015.4,11111222 
TABS,ioos:station:wmo:42045:1,2011-06-06T15:00:00Z,26.2168,-96.4998,1015.58,11111222 
TABS,ioos:station:wmo:42045:1,2011-06-06T15:30:00Z,26.2168,-96.4998,1015.47,11111222 
TABS,ioos:station:wmo:42045:1,2011-06-06T16:00:00Z,26.2168,-96.4998,1015.93,11111222 
TABS,ioos:station:wmo:42045:1,2011-06-06T16:30:00Z,26.2168,-96.4998,1015.94,11111222 
TABS,ioos:station:wmo:42045:1,2011-06-06T17:00:00Z,26.2168,-96.4998,1015.82,11111222 
TABS,ioos:station:wmo:42045:1,2011-06-06T17:30:00Z,26.2168,-96.4998,1015.61,11111222 
TABS,ioos:station:wmo:42045:1,2011-06-06T18:00:00Z,26.2168,-96.4998,1015.32,11111222 
TABS,ioos:station:wmo:42045:1,2011-06-06T18:30:00Z,26.2168,-96.4998,1015.02,11111222 